GFSGL_sfc_temp_084.txt.gz
Temp
54 54 54 53 54 54 54 53 53 54 54 54 54 54 54 55 56 55 56 56 55 54 54 53 52 52 52 52 50 49 48 47 44 49 52 48 41 40 39 39 40 40 41
51 52 51 52 52 52 51 51 50 50 50 50 50 51 51 52 52 52 51 52 52 51 51 51 51 52 50 51 51 48 47 47 45 43 48 48 37 37 38 36 36 38 38
49 49 49 48 48 48 47 47 47 47 47 48 48 47 47 48 49 50 51 51 51 51 50 48 48 48 46 47 47 47 48 46 46 43 44 47 37 35 34 34 34 34 35
48 48 47 46 47 47 47 46 45 46 46 46 46 46 46 46 46 47 48 47 48 48 47 47 46 45 44 44 44 44 44 44 44 42 42 42 36 32 34 32 30 32 32
47 46 45 44 45 43 42 41 41 41 43 43 42 43 44 44 45 43 43 43 42 42 43 43 43 42 40 42 43 43 42 41 41 40 39 40 37 29 29 32 32 31 31
44 42 43 41 40 40 39 38 39 40 40 40 40 40 40 42 41 39 39 40 39 38 38 40 40 37 39 40 41 41 41 40 37 38 39 38 38 36 34 32 30 28 27
40 39 38 38 37 38 38 37 38 38 38 37 38 38 38 39 38 38 38 38 38 38 38 37 37 37 36 37 39 40 40 40 41 39 37 37 37 38 34 31 29 29 30
39 37 37 37 35 36 35 35 36 37 36 36 36 36 36 37 37 37 37 38 38 39 39 38 36 36 38 36 36 35 36 37 37 37 37 37 37 37 35 34 31 32 32
37 36 35 34 32 32 31 33 34 34 34 33 34 33 33 34 36 36 36 36 36 36 37 38 38 38 38 38 35 33 34 34 37 39 39 39 39 39 35 32 31 29 27
34 33 32 32 29 29 30 30 31 31 31 33 32 33 33 32 35 36 36 35 33 34 36 36 35 37 37 37 33 33 32 33 33 33 33 34 35 35 36 33 32 29 27
30 29 28 29 28 30 30 30 29 28 29 29 30 32 33 33 33 35 35 34 33 33 33 34 36 36 36 36 37 33 33 34 34 33 32 32 33 32 32 33 32 32 28
26 24 24 24 25 28 27 29 30 29 28 27 28 30 34 33 33 34 34 35 35 32 32 34 34 35 36 36 36 35 35 34 32 32 32 32 31 31 31 32 32 31 31
19 18 19 21 22 24 25 25 28 30 30 28 27 27 29 33 33 34 33 34 34 33 33 33 34 34 35 35 35 34 32 33 32 31 31 30 30 29 28 26 25 24 24
15 16 18 19 21 22 25 27 27 27 28 28 27 27 30 33 34 34 33 33 33 33 33 33 33 33 34 33 32 33 33 33 32 31 29 29 30 28 27 27 25 25 22
13 15 17 19 20 20 22 24 25 27 28 27 28 29 29 30 33 35 33 32 32 32 31 32 32 33 32 32 32 32 32 32 31 30 29 28 27 26 25 26 24 25 23
11 15 17 16 18 19 20 22 26 27 29 32 33 32 32 34 34 35 34 34 34 34 30 30 30 31 31 31 31 31 31 31 31 30 30 29 28 27 25 24 24 25 22
7 10 13 14 16 16 18 18 18 24 29 32 32 33 32 33 34 33 34 33 32 32 29 29 29 29 29 29 30 29 29 29 31 30 30 29 28 26 26 25 24 24 22
6 8 10 13 14 15 16 17 19 19 21 26 30 29 29 29 29 31 33 31 27 25 23 23 23 24 24 25 25 26 26 27 27 27 27 27 27 26 25 24 24 23 22
8 11 12 13 14 14 16 18 20 22 25 25 26 26 25 26 23 24 24 22 20 18 19 18 18 19 20 21 22 22 21 21 21 23 22 22 22 24 22 22 21 19 19
9 9 10 11 14 16 18 20 22 24 22 21 21 20 20 20 16 14 14 15 15 14 15 14 15 15 16 17 18 18 18 18 18 18 18 18 19 20 19 19 19 18 18
9 10 11 13 15 16 18 20 21 20 18 16 16 19 18 14 12 12 11 10 10 10 11 11 11 11 11 13 15 15 14 14 14 14 15 15 15 15 16 17 16 15 15
10 11 12 13 15 16 16 18 17 17 15 14 13 13 15 12 11 10 9 8 7 7 8 8 7 6 5 6 8 12 11 10 11 11 12 11 13 13 13 13 13 12 11
10 11 12 13 13 13 14 13 13 13 12 11 11 10 9 8 8 7 6 5 5 5 5 6 6 5 5 4 5 5 7 6 4 5 8 9 9 10 9 10 9 8 9
9 9 10 10 11 11 11 11 11 9 9 9 8 7 7 6 6 5 5 5 5 4 4 3 2 1 1 1 3 3 2 1 1 2 2 5 6 5 6 5 6 4 6
7 7 7 8 8 8 9 8 8 7 7 6 6 6 6 6 5 4 3 3 2 3 3 1 1 0 -1 -3 -2 -2 -2 -5 -2 -6 0 2 2 0 0 2 3 4 3
5 6 6 6 6 6 6 6 6 6 5 5 5 4 4 4 4 3 2 0 0 -0 -1 -0 -1 -3 -4 -1 -1 -1 -4 2 2 -6 0 2 2 2 0 1 -1 2 2

GFSGL_sfc_temp_087.txt.gz
Temp
56 56 55 55 56 56 55 54 53 54 53 53 52 52 53 53 54 54 54 54 53 53 54 53 52 53 52 52 52 51 50 49 46 50 52 53 43 42 42 42 42 42 43
54 54 53 54 54 53 52 52 51 50 51 51 50 50 50 51 51 50 50 51 50 50 51 51 50 51 49 51 50 49 49 50 46 44 48 49 48 43 43 39 38 39 39
52 52 51 50 50 49 49 49 49 48 49 49 49 48 48 48 48 48 48 48 48 48 48 48 48 48 46 46 46 46 46 47 46 44 45 48 47 36 35 35 34 35 36
51 50 48 47 47 47 47 46 45 45 45 46 46 46 46 46 46 47 47 44 44 45 45 44 44 44 42 42 42 42 42 42 42 42 42 43 44 37 33 34 33 33 35
50 48 47 46 46 44 42 42 41 40 43 43 43 42 43 43 46 43 41 40 40 41 41 41 41 41 38 40 39 39 39 39 39 39 39 40 41 37 32 35 33 35 33
45 43 43 41 39 39 39 38 38 39 40 39 39 39 39 42 42 41 39 37 38 37 37 39 40 37 39 40 41 41 40 38 36 36 37 36 37 39 38 34 33 32 29
40 39 38 37 37 37 37 37 37 38 38 37 38 38 37 38 40 40 38 36 36 37 37 37 37 37 37 37 38 39 39 39 40 37 35 35 35 37 36 35 33 32 32
38 37 36 36 35 35 35 34 35 36 35 35 35 36 35 36 38 38 37 36 35 36 37 37 36 37 38 37 37 35 36 36 36 36 36 36 35 35 34 35 35 32 31
36 35 35 33 31 31 30 32 33 32 32 32 33 33 32 33 37 37 36 34 34 34 36 36 36 36 37 38 34 33 33 34 37 39 39 40 40 39 37 34 31 29 28
33 32 32 31 28 28 29 30 31 31 30 31 30 31 31 31 35 37 36 34 32 33 34 35 35 36 37 38 33 33 31 33 33 33 34 34 35 34 36 34 32 30 27
30 29 27 27 25 26 27 28 28 29 30 29 30 32 31 33 34 36 37 34 32 31 32 32 34 36 36 36 37 33 33 34 34 33 32 33 33 32 32 32 32 32 28
25 23 22 22 23 25 23 24 25 26 27 28 30 31 33 33 34 35 37 37 36 31 31 32 33 35 36 36 35 36 36 34 32 32 32 32 31 30 28 28 27 26 27
18 16 18 20 21 22 22 23 24 26 27 27 29 29 30 32 33 37 37 36 36 33 33 33 35 35 35 35 35 35 32 32 32 31 30 28 28 28 28 26 26 25 23
14 16 18 19 20 22 24 24 24 24 24 25 25 26 28 30 32 34 34 34 33 33 33 33 33 35 36 35 32 33 32 32 30 29 29 29 29 28 26 27 25 24 22
14 16 18 21 21 20 22 23 23 24 25 23 24 25 26 27 31 34 34 33 32 33 32 32 32 32 31 31 32 32 32 32 30 31 29 28 27 26 25 26 25 25 21
12 17 18 17 19 19 20 21 26 27 29 30 31 30 30 33 33 35 36 35 34 33 31 30 29 29 29 28 28 29 29 30 30 30 29 29 27 26 25 25 25 24 21
8 11 14 15 16 17 18 18 17 22 27 29 31 33 32 31 31 32 33 33 32 31 28 26 25 25 26 26 26 27 26 27 28 29 28 28 27 27 26 24 24 23 21
6 8 11 14 16 16 17 17 17 16 18 22 30 30 29 29 28 28 30 31 25 24 22 21 21 21 22 22 22 21 22 22 23 24 24 24 24 25 24 23 23 21 20
9 12 13 14 15 15 15 18 20 20 21 24 24 25 23 26 25 23 24 21 20 18 18 17 17 17 18 19 19 20 19 19 19 19 19 19 19 21 19 20 18 16 19
10 10 10 12 14 16 18 19 20 22 22 20 19 18 18 20 16 15 15 15 15 15 15 14 14 14 14 15 16 16 16 15 15 15 15 15 16 16 16 14 13 15 14
11 12 11 12 16 17 17 18 19 20 19 17 16 17 21 14 13 12 11 10 10 10 10 11 10 9 9 9 11 13 12 13 12 12 12 11 11 10 10 10 8 7 8
11 12 13 13 15 16 16 16 17 17 15 14 15 14 17 12 11 10 9 8 8 8 8 9 8 6 5 5 5 7 7 5 4 4 5 3 5 3 5 4 4 4 3
11 11 12 13 14 13 14 15 13 13 13 12 12 11 11 10 9 8 8 7 7 7 6 6 6 5 5 3 1 0 -2 -3 -4 -5 -3 -2 -2 -2 -1 -1 -2 -3 -2
10 10 11 11 12 11 12 11 11 10 10 10 10 9 9 8 7 7 7 6 6 6 5 4 2 0 -2 -3 -1 -3 -5 -6 -7 -7 -9 -7 -4 -4 -4 -6 -5 -7 -5
8 8 8 9 8 9 9 9 9 8 8 8 8 8 7 8 7 7 6 5 4 3 3 1 0 -1 -4 -7 -8 -9 -8 -7 -11 -10 -11 -8 -9 -11 -11 -9 -9 -6 -7
6 6 7 7 7 7 7 7 7 7 6 7 7 6 6 6 6 5 5 3 2 1 1 -0 -1 -5 -5 -6 -7 -5 -5 1 -3 -6 -10 -7 -9 -9 -10 -10 -11 -9 -8

GFSGL_sfc_temp_093.txt.gz
Temp
45 44 43 42 42 42 42 41 41 41 41 41 40 40 40 40 40 40 39 40 39 39 40 40 40 41 42 42 42 43 42 42 40 44 46 47 45 46 46 46 44 45 45
43 42 42 42 41 40 39 39 39 38 39 39 39 38 38 39 38 38 37 38 37 37 38 38 38 41 38 39 39 38 39 40 40 37 41 42 43 44 44 43 44 44 43
42 41 39 38 38 37 37 37 37 37 36 37 37 36 37 37 37 37 38 37 37 36 37 36 36 36 34 35 35 36 38 39 38 35 35 39 40 41 41 41 40 41 40
39 38 36 36 37 36 36 35 35 35 35 35 35 36 36 36 36 36 37 36 35 36 35 35 34 34 33 33 34 36 37 35 35 34 34 35 37 39 39 37 37 40 39
38 36 35 35 35 34 32 32 32 32 33 33 33 32 33 34 37 36 34 33 32 33 33 33 33 33 35 36 36 35 34 33 33 32 32 34 34 35 34 36 35 35 36
35 34 34 33 32 31 31 31 31 31 31 31 30 30 29 34 36 37 36 33 34 34 32 33 34 34 36 37 37 38 37 33 32 31 32 31 32 33 34 33 32 31 30
32 32 31 31 30 30 30 30 29 29 29 28 28 28 28 28 35 36 36 34 34 34 33 33 33 34 34 34 36 37 36 37 37 34 31 31 31 32 32 31 32 31 31
31 30 30 29 28 28 27 27 27 27 27 27 27 26 27 29 34 36 36 34 34 34 34 33 33 33 34 33 34 33 34 34 34 34 33 32 33 33 33 32 31 31 32
30 29 29 27 25 25 21 23 24 24 23 22 26 22 21 25 32 35 36 34 33 33 34 34 33 33 35 37 33 32 32 33 36 37 37 37 37 36 35 31 28 28 28
29 29 27 26 22 18 22 20 22 19 24 24 23 21 21 21 30 35 36 33 31 32 33 34 34 35 36 37 33 32 30 30 31 31 33 33 31 28 30 25 24 24 23
27 25 23 22 19 18 17 17 14 13 18 12 16 17 19 22 24 34 35 32 30 31 32 31 32 35 37 37 37 32 32 33 31 30 25 23 22 22 23 22 23 21 20
23 21 18 14 17 17 8 8 8 6 7 11 11 14 19 22 28 31 34 34 35 31 30 32 32 35 36 37 34 36 35 33 24 20 15 18 18 20 23 23 23 22 23
17 13 12 11 12 12 5 7 8 6 6 10 14 14 16 22 23 31 32 33 34 32 33 34 35 35 34 32 34 34 30 30 26 16 21 20 24 24 25 24 24 24 22
12 11 10 9 9 8 14 14 7 5 6 10 11 16 19 20 23 25 26 29 32 32 33 30 30 33 33 31 28 29 28 28 26 22 19 22 23 20 21 22 19 20 16
10 12 10 9 5 8 12 10 13 14 13 14 18 21 22 21 24 32 32 29 30 32 32 16 16 18 20 24 25 22 23 23 22 25 24 23 19 21 21 20 19 15 14
11 11 10 8 7 9 8 8 19 23 26 27 28 28 27 31 32 32 32 31 32 33 26 13 13 16 17 21 19 18 19 19 19 21 21 21 21 21 17 17 14 10 7
8 8 6 8 6 4 4 4 3 13 22 25 27 30 30 29 28 30 30 29 30 24 12 10 11 16 16 18 17 15 14 15 17 17 16 15 16 15 14 13 13 10 6
-2 3 -0 -0 -1 -1 1 1 1 2 3 9 21 25 25 25 27 27 26 22 13 12 7 7 8 11 13 14 15 14 13 13 13 12 11 10 10 7 6 8 8 5 2
-2 -4 -3 -3 -3 -0 -0 1 2 4 4 8 6 15 11 21 22 19 18 0 -1 1 2 5 5 7 9 11 12 11 10 10 9 7 4 1 1 -0 -1 -0 3 3 1
-8 -1 -2 -4 -3 -2 0 2 4 3 5 7 2 1 1 1 -3 -5 -5 -4 -3 -2 -1 -0 -0 -0 4 4 6 6 5 3 3 2 1 -4 -5 -6 -3 -6 -6 -4 -7
-3 -4 1 -1 -2 -2 0 2 4 3 2 2 -0 2 21 2 -5 -7 -6 -2 3 3 1 -2 -3 -2 3 2 1 1 -0 -1 -3 -2 -6 -12 -14 -11 -11 -7 -9 -10 -11
-2 -1 -4 -1 -2 -1 -1 2 -1 -1 -1 -1 -1 0 17 -0 -4 -3 1 2 4 5 4 4 3 2 2 2 1 0 -1 -3 -4 -5 -9 -15 -16 -16 -14 -13 -14 -12 -13
-2 -3 -2 -4 -2 0 -2 -6 -4 -4 -5 -6 -5 -3 -5 -6 -4 -2 1 3 5 6 6 5 4 4 3 2 2 1 -1 -3 -2 -11 -16 -18 -18 -18 -19 -16 -17 -16 -15
-0 0 1 -2 -5 -5 -7 -7 -7 -5 -5 -7 -9 -9 -5 -6 -7 -4 -0 3 3 0 3 5 5 4 3 2 0 -1 -3 -4 -6 -11 -14 -16 -17 -20 -19 -20 -18 -17 -15
-3 -2 -3 -6 -8 -7 -8 -7 -5 -8 -9 -8 -8 -8 -7 -7 -6 -6 -1 3 3 4 4 5 4 4 3 2 0 -1 -2 0 -4 -11 -20 -20 -18 -21 -23 -22 -21 -19 -16
-7 -7 -7 -8 -5 -2 -3 -2 -3 -5 -6 -7 -7 -7 -6 -5 -4 -4 -1 4 2 4 4 4 3 3 3 2 1 1 0 3 0 -4 -10 -14 -16 -20 -23 -20 -21 -20 -18

GFSGL_sfc_temp_096.txt.gz
Temp
43 43 42 41 40 40 39 38 38 38 38 38 38 38 37 37 37 37 36 37 36 35 36 35 35 36 36 36 36 37 37 36 34 37 40 41 41 41 43 43 44 43 44
42 42 41 40 39 38 37 36 37 36 36 36 36 36 36 36 35 35 35 35 34 34 34 34 34 37 34 34 34 34 36 37 35 32 36 37 38 39 40 39 42 43 42
41 40 38 37 36 35 35 36 35 35 34 35 34 34 34 34 34 35 35 34 34 34 33 32 32 32 31 33 34 34 35 37 36 33 32 36 36 38 36 37 38 38 39
38 38 36 35 35 35 34 33 33 33 33 32 32 33 32 33 34 34 34 33 32 33 34 34 33 33 32 33 34 33 34 33 33 32 32 33 34 36 36 34 34 36 36
37 35 34 34 34 33 32 31 31 30 31 31 30 30 31 32 35 32 32 31 33 34 34 34 34 33 34 36 34 33 33 32 32 31 31 32 32 32 31 33 31 33 34
35 34 34 33 31 30 30 30 30 29 29 29 29 29 28 32 35 36 36 33 34 33 33 33 34 33 35 37 38 38 36 32 32 31 31 30 30 31 32 31 30 30 27
33 32 31 30 30 29 30 29 29 28 28 28 28 27 27 27 34 36 36 34 33 33 33 34 34 34 33 33 35 36 35 36 38 34 30 31 30 32 32 30 29 28 28
31 30 29 29 28 28 27 27 27 27 26 26 26 26 26 28 33 35 36 33 33 33 32 33 32 33 34 33 34 33 33 33 32 33 32 32 33 32 30 28 26 25 28
30 30 29 28 26 25 23 24 24 24 23 22 25 21 20 23 31 35 34 29 31 30 31 32 30 32 35 37 34 31 31 32 34 36 37 36 34 33 31 22 21 20 22
31 30 28 26 23 22 23 22 22 20 23 23 22 20 18 15 29 33 33 27 20 29 32 32 32 34 36 37 33 30 29 30 29 25 25 26 27 25 29 21 20 16 17
29 26 24 23 22 22 20 20 17 14 17 11 15 15 15 18 21 32 34 29 28 30 31 31 32 35 37 37 36 28 31 33 29 17 17 20 20 21 22 20 20 20 17
24 22 20 19 23 20 17 14 11 11 9 8 7 11 17 19 26 30 33 34 34 30 29 32 33 36 36 35 33 35 34 31 19 13 12 15 23 19 23 22 21 19 20
21 19 17 18 19 17 14 11 12 7 7 9 12 9 13 19 21 29 31 32 33 30 31 33 35 34 34 30 33 32 28 27 25 24 20 16 18 21 20 19 16 15 16
19 18 17 17 16 13 17 15 8 6 5 8 7 10 11 16 20 22 27 29 30 31 30 31 31 30 31 28 23 23 22 19 19 24 23 18 18 18 17 18 12 17 11
19 17 17 15 14 12 13 10 13 12 12 6 13 17 21 12 19 31 31 29 28 29 30 26 14 13 14 15 15 14 16 16 16 17 13 15 15 16 16 13 12 8 6
17 17 15 14 11 11 10 9 19 22 25 26 28 27 25 29 30 30 31 31 31 32 25 13 7 9 12 13 12 12 12 12 13 13 10 11 13 15 14 11 9 4 3
18 14 12 12 10 9 7 6 5 11 21 24 26 29 28 27 28 30 29 29 29 22 6 2 4 6 7 11 11 10 9 9 7 8 6 8 10 10 9 6 7 6 3
10 11 9 8 7 5 4 2 0 0 1 4 17 23 24 25 25 25 24 16 10 10 4 4 4 8 9 10 10 7 6 7 5 4 2 -1 2 -0 -0 -1 0 -3 -1
6 5 4 3 2 3 2 0 -0 2 2 2 4 13 9 21 21 18 15 -5 -4 -1 0 2 2 3 5 5 7 8 8 7 4 -1 -3 -5 -3 -5 -7 -6 -1 -1 -3
3 5 3 2 -0 -1 2 2 3 4 3 1 2 2 -2 -0 -4 -8 -9 -9 -7 -6 -5 -5 -4 -4 -3 -1 -0 2 5 4 3 2 1 -1 -2 -3 -1 -9 -10 -7 -9
1 1 2 -0 -0 1 2 4 4 2 2 -0 0 3 17 2 -5 -8 -9 -9 -8 -8 -7 -7 -5 -5 -5 -4 0 -0 1 2 1 1 -0 -2 -5 -8 -11 -7 -11 -12 -15
2 3 3 2 2 2 1 3 2 2 1 2 1 2 17 1 -5 -6 -8 -8 -9 -8 -8 -7 -7 -4 1 -0 1 3 3 3 1 1 -1 -2 -4 -5 -13 -13 -15 -14 -15
3 1 -0 -3 -0 0 -0 -2 -1 -0 -0 -1 -1 0 -3 -6 -8 -7 -6 -8 -8 -7 -7 -7 -4 0 2 3 4 4 3 3 2 -1 -3 -5 -6 -6 -17 -15 -16 -18 -17
3 2 2 1 -1 -1 1 -0 -1 0 -0 -1 -2 -2 -1 -5 -6 -2 -5 -7 -6 -6 -4 -2 2 2 2 1 3 3 2 1 -0 -2 -3 -6 -8 -9 -13 -17 -17 -20 -17
4 4 3 2 1 1 -1 -4 -3 -2 -0 1 -0 -1 -3 -4 -4 -7 -7 -4 -3 -3 1 2 3 3 3 2 2 1 2 4 3 -1 -5 -7 -7 -9 -11 -12 -20 -21 -19
3 2 2 -2 -5 -4 -2 1 2 3 3 2 0 -1 -2 -2 -2 -5 -7 -6 -3 -2 -2 -2 -0 1 2 2 1 3 3 5 2 0 -3 -6 -6 -8 -12 -15 -20 -21 -19

GFSGL_sfc_temp_102.txt.gz
Temp
45 46 46 45 45 44 41 39 38 37 36 36 36 35 35 34 34 34 33 33 32 31 31 30 31 33 33 34 35 35 34 34 29 33 35 36 35 36 36 36 36 36 36
45 45 44 43 43 42 38 36 36 35 35 34 34 34 34 33 33 32 31 31 30 30 32 32 33 35 33 34 34 34 34 35 32 29 31 32 33 35 35 33 35 37 35
43 43 42 41 41 38 35 35 34 34 33 33 33 33 32 33 32 31 31 31 30 31 31 30 31 30 29 29 29 32 33 33 30 29 31 34 34 35 32 33 33 32 34
41 41 39 39 38 35 34 34 33 33 32 31 32 32 32 31 32 31 31 30 31 31 32 32 31 30 29 29 31 31 31 27 32 32 31 32 32 33 31 29 28 30 29
38 38 36 34 34 33 32 32 32 31 32 31 31 31 30 31 32 31 31 30 30 30 31 32 32 31 34 35 34 32 30 29 31 30 30 30 30 30 29 29 27 26 28
36 34 34 33 33 32 32 31 31 31 30 30 29 29 29 32 37 37 32 30 31 31 30 30 31 30 33 36 38 38 37 32 31 30 29 28 29 30 29 27 25 22 20
34 33 33 33 32 32 31 30 30 29 29 28 28 28 28 29 36 36 36 31 31 30 30 30 31 31 29 30 34 36 35 36 36 33 29 28 29 28 28 26 24 20 20
34 33 32 32 31 30 29 29 28 27 27 27 27 27 27 29 35 36 36 31 30 30 30 29 30 30 32 31 32 32 32 30 31 33 27 28 26 31 30 26 20 16 19
34 33 32 32 30 29 28 26 26 25 24 24 25 23 24 26 33 35 33 30 31 30 30 31 32 31 35 36 32 31 29 28 33 34 33 33 33 32 32 21 18 7 11
35 34 33 32 29 28 27 25 23 23 24 25 24 23 23 24 30 34 33 29 22 27 28 33 33 34 36 37 32 29 28 26 22 18 19 23 25 24 29 21 22 7 5
36 32 29 28 27 27 24 22 22 22 22 20 22 22 23 23 24 32 34 29 29 27 26 29 29 35 36 37 36 31 31 30 27 21 17 16 17 18 20 18 17 21 7
31 30 27 25 26 25 23 21 21 21 20 19 21 21 22 22 24 30 33 34 33 28 28 30 25 33 36 36 33 34 32 24 27 26 25 24 23 16 19 18 14 13 16
30 28 25 24 24 23 22 20 20 20 20 20 21 22 21 22 22 29 32 33 34 29 31 31 33 34 34 31 31 30 17 11 10 11 17 19 15 16 15 14 11 10 11
29 26 23 23 22 22 23 22 21 20 21 21 21 20 19 20 21 22 23 23 28 28 31 29 27 31 29 25 17 19 17 13 12 10 9 10 12 11 10 10 8 11 7
27 24 23 23 22 21 22 22 22 22 24 22 21 21 19 19 21 26 25 20 18 25 26 22 19 23 22 14 9 9 9 8 7 7 5 5 8 9 10 8 7 6 6
24 23 23 23 22 22 20 19 26 25 26 27 27 23 22 27 30 32 32 32 32 33 27 23 19 21 18 9 7 7 7 7 6 5 2 3 5 6 9 13 8 6 8
27 25 24 23 22 20 20 20 18 21 28 29 30 31 30 27 31 30 30 31 30 28 12 12 18 13 7 8 6 5 5 5 2 2 2 1 3 2 3 9 10 10 10
27 26 25 24 23 22 21 21 22 18 16 16 27 29 31 31 29 29 29 20 13 5 -3 2 5 1 1 2 2 1 1 -0 0 -1 -1 -2 -4 -2 3 6 5 3 4
25 25 25 23 22 21 20 18 16 16 16 9 6 18 22 29 28 26 25 4 4 -1 -4 -5 -6 -3 -3 -5 -5 -6 -7 -6 -6 -8 -8 -5 -3 -1 -2 -2 2 5 4
23 22 21 19 16 15 16 15 13 12 11 12 11 15 6 6 6 4 -4 -8 -7 -4 -5 -5 -6 -9 -8 -7 -11 -11 -11 -11 -10 -10 -8 -7 -5 -5 -3 -5 -4 -2 -2
17 15 15 12 14 14 14 12 11 10 11 10 11 10 13 9 9 6 2 -3 -1 -3 -1 -2 -7 -8 -11 -14 -15 -14 -13 -9 -10 -10 -10 -8 -6 -6 -7 -2 -7 -8 -10
16 14 11 11 12 9 12 9 6 7 8 9 7 7 22 16 7 5 2 0 -2 -2 -3 -4 -5 -7 -7 -8 -8 -9 -11 -9 -10 -10 -9 -9 -8 -7 -8 -6 -5 -9 -12
10 9 8 6 9 9 8 9 7 8 8 8 7 7 5 8 4 3 3 1 -2 -4 -5 -6 -4 -8 -9 -8 -8 -5 -6 -6 -2 -6 -5 -10 -9 -9 -10 -10 -9 -10 -12
5 7 8 9 8 9 10 10 9 9 9 7 6 6 8 6 0 4 3 -0 -3 -5 -4 -1 -2 -4 -6 -8 -9 -8 -7 -6 -8 -3 -3 -6 -7 -7 -6 -8 -10 -10 -6
4 6 8 9 8 8 9 9 10 9 8 8 8 6 6 5 3 4 3 1 -5 -2 0 1 -1 -2 -3 -4 -6 -8 -6 2 -3 -3 -6 -5 -5 -6 -7 -6 -5 -7 -7
-0 0 1 1 1 3 7 8 7 8 8 7 8 7 7 6 6 5 4 1 -0 1 2 1 -1 -1 -4 -3 -4 -2 -2 3 -0 2 -3 -5 -5 -4 -5 -6 -7 -7 -7

GFSGL_sfc_temp_105.txt.gz
Temp
49 50 49 47 48 48 47 45 44 43 42 41 40 39 39 38 39 38 37 37 36 36 35 34 34 36 36 36 37 37 37 36 32 36 38 39 39 39 40 40 40 39 39
46 47 46 46 45 44 43 42 42 41 40 39 38 38 37 37 37 37 37 36 35 34 34 35 34 36 35 36 36 36 36 36 33 29 34 36 37 38 38 37 37 38 37
45 45 44 43 43 43 42 40 40 39 38 37 37 36 36 36 36 36 36 35 35 35 34 34 34 35 33 34 35 35 35 35 34 32 32 37 36 37 36 36 34 35 36
43 43 42 42 42 41 40 39 38 37 36 36 36 36 36 35 35 35 35 34 34 35 35 35 35 34 33 33 34 34 34 33 34 34 33 34 34 36 35 31 30 33 32
42 41 40 38 39 38 37 37 35 35 35 35 34 34 34 34 35 34 35 34 34 33 34 35 35 34 34 36 36 35 34 33 33 33 33 31 32 32 28 30 29 30 32
40 39 38 37 36 36 35 34 34 33 33 33 32 33 32 34 37 36 34 33 33 33 32 33 34 32 34 35 36 37 38 34 31 32 31 30 30 30 30 29 27 25 24
37 36 36 36 35 34 34 33 33 32 32 32 31 31 31 33 38 37 35 33 33 33 33 32 32 33 32 33 34 36 35 36 36 34 31 31 29 30 30 28 27 24 25
35 34 35 35 34 32 32 32 31 31 30 30 30 30 30 32 37 37 35 33 33 33 32 32 32 32 33 33 33 33 33 33 33 34 33 32 31 32 31 29 26 23 24
35 34 34 34 32 31 30 30 30 29 28 28 28 28 28 30 36 37 34 32 32 32 32 32 33 33 35 36 33 32 32 33 33 34 34 34 34 33 32 27 24 21 22
35 35 35 34 32 31 31 28 28 29 28 28 26 26 26 27 34 36 34 31 29 30 31 33 33 34 36 37 33 32 30 32 30 26 25 27 28 27 28 25 24 22 19
36 34 33 32 31 31 29 27 26 26 26 25 25 24 24 26 28 34 35 31 30 29 30 31 32 34 36 37 37 33 32 33 29 27 25 25 26 26 26 25 24 24 20
33 32 31 31 30 28 27 25 25 25 24 22 23 22 24 25 26 32 34 34 33 30 29 31 31 33 34 36 35 34 34 28 25 27 27 27 26 25 24 24 22 22 23
32 31 30 28 28 27 26 24 24 24 24 22 23 23 23 24 25 30 33 35 35 31 31 31 33 33 35 35 34 33 21 21 21 21 22 23 23 22 20 22 21 19 18
32 30 28 28 26 26 26 25 25 24 24 24 24 25 25 24 24 25 27 31 33 33 32 31 31 31 31 30 25 25 22 20 21 20 19 19 19 20 20 20 19 19 20
31 27 27 27 26 24 25 25 26 27 28 26 27 27 24 23 25 28 27 26 27 28 26 27 26 26 25 24 21 17 17 17 18 16 16 16 16 16 18 18 16 16 17
26 25 27 25 25 25 24 23 30 28 31 32 30 28 26 29 31 31 32 32 32 32 29 26 26 24 23 26 21 17 15 13 15 14 13 13 14 14 15 17 16 14 15
27 25 25 25 25 24 24 24 22 25 29 30 30 30 30 28 31 32 33 33 33 33 28 26 25 24 23 19 17 15 15 14 10 12 12 11 11 11 12 14 13 13 13
24 25 26 26 26 25 24 24 24 22 22 23 29 30 32 31 31 32 33 32 24 22 16 21 19 18 16 15 13 12 12 10 10 10 9 7 6 8 10 11 11 8 9
25 25 26 26 26 25 25 24 24 24 24 21 18 26 30 32 33 33 32 26 19 18 14 11 11 11 11 10 10 8 7 8 7 5 5 4 5 5 7 7 8 5 6
22 24 25 25 22 22 22 21 21 20 20 18 17 21 16 20 25 25 25 13 11 12 10 9 8 6 6 5 3 3 3 2 3 2 3 3 4 4 5 4 4 6 5
16 16 20 20 20 21 20 20 20 18 17 16 17 17 19 18 21 19 14 9 9 9 9 7 5 3 1 0 -1 -0 1 4 1 1 1 2 1 2 2 4 3 1 1
14 15 14 15 15 16 16 17 17 16 17 16 15 13 23 18 13 13 12 11 10 9 8 6 4 2 0 -1 -1 -0 0 1 0 1 1 -0 0 1 1 1 1 2 0
8 8 8 9 11 13 13 12 13 14 15 14 15 13 12 17 17 14 13 12 10 6 4 0 2 0 -3 -2 1 3 2 1 1 2 0 -0 -1 0 -1 0 0 -1 -1
1 2 3 3 4 5 7 10 12 13 13 13 12 12 12 12 13 12 11 9 7 4 4 1 2 3 1 -0 1 0 -0 1 -1 -0 0 1 0 -1 -1 -3 -2 -2 -1
-3 -2 0 1 3 5 6 7 7 9 10 11 11 12 12 12 11 10 9 9 7 5 5 3 3 3 3 2 1 -0 -2 2 -1 -2 0 -1 -1 -2 -4 -2 -1 -2 -2
-6 -6 -5 -4 -3 -2 1 3 5 7 9 9 10 10 11 10 10 10 9 8 6 6 6 6 5 4 4 4 4 3 0 2 1 -0 -1 -1 -4 -4 -3 -3 -3 -2 -2

GFSGL_sfc_temp_108.txt.gz
Temp
60 64 61 57 57 56 54 52 51 51 47 48 50 49 48 48 48 47 45 44 44 42 42 42 41 42 43 43 43 43 42 42 38 43 43 44 43 42 43 44 43 42 43
58 61 58 55 50 50 49 48 47 46 47 46 48 47 47 46 46 45 43 43 42 41 41 41 41 41 41 42 42 40 40 41 38 33 38 41 40 42 42 40 40 42 41
53 55 52 51 50 50 46 44 45 43 44 43 46 45 44 44 44 44 43 42 42 41 41 41 41 40 39 39 40 40 40 40 37 35 37 41 40 40 39 39 38 39 41
51 51 50 49 49 46 47 42 42 42 43 41 45 45 42 42 42 42 41 41 41 40 40 40 40 39 38 38 38 38 38 37 36 37 37 37 38 39 37 35 34 38 36
49 48 47 46 46 43 40 41 39 41 41 42 42 42 41 41 41 41 41 40 39 38 38 38 39 37 36 38 39 38 38 36 36 36 36 36 36 34 31 33 32 33 36
47 45 45 41 39 39 38 36 37 37 38 39 38 38 39 39 38 39 39 39 37 36 35 37 37 34 36 36 37 37 38 36 31 33 35 33 33 33 33 31 30 29 30
43 41 40 39 38 37 36 36 35 36 37 37 37 37 37 38 38 37 37 37 36 36 36 35 35 35 34 36 36 36 36 37 37 36 33 34 32 34 31 29 29 29 30
39 38 38 38 38 35 34 34 34 35 36 36 35 36 37 37 38 38 35 35 35 35 35 35 35 35 35 34 35 35 35 36 36 36 36 35 35 34 32 32 29 28 30
38 38 37 38 36 35 34 34 34 33 34 34 34 33 33 34 38 38 35 34 33 33 34 35 35 35 35 36 34 32 33 34 35 34 33 35 35 35 33 31 30 28 28
39 38 38 37 35 35 35 34 33 34 33 33 32 32 33 33 37 37 36 33 32 32 32 33 32 35 35 36 34 32 31 33 33 32 30 31 31 31 30 29 29 26 27
38 37 36 36 35 36 35 34 33 32 31 31 30 30 30 32 34 37 37 33 32 31 31 32 33 35 36 37 37 33 33 34 32 30 29 28 29 30 31 30 29 28 27
36 35 34 34 34 34 33 32 31 31 30 29 29 27 29 29 31 36 37 35 34 31 31 33 33 35 35 36 36 36 36 34 30 29 28 29 30 31 31 29 28 27 28
34 33 33 33 33 33 32 30 30 30 30 29 28 29 27 28 29 33 35 36 35 32 33 33 34 34 35 35 36 36 32 29 28 27 28 30 31 30 26 27 27 25 24
33 33 33 32 32 32 33 32 32 30 30 29 29 29 29 28 27 29 30 33 33 33 33 32 33 33 33 33 31 32 29 28 27 27 28 29 27 26 26 27 25 26 24
33 32 32 32 31 31 32 32 32 32 33 30 30 31 29 28 29 30 30 30 32 33 31 30 29 29 29 29 28 27 26 24 22 24 23 24 24 24 24 25 23 23 22
31 30 31 32 30 30 30 29 33 34 34 36 36 34 32 32 34 33 32 32 33 33 29 27 27 28 27 27 27 26 24 22 23 23 22 22 21 22 23 23 22 20 20
32 30 31 30 29 29 29 29 27 29 32 34 32 32 32 31 32 32 33 33 33 32 28 27 27 28 28 28 28 28 24 23 23 21 21 20 20 19 17 20 21 20 19
30 29 30 30 30 30 29 29 29 27 25 26 30 31 32 32 31 32 33 33 30 32 29 29 28 28 28 27 26 24 23 21 17 18 18 18 17 17 17 18 19 16 17
29 30 30 30 30 30 29 29 29 28 27 28 26 29 31 32 31 31 32 30 29 28 28 24 25 24 24 23 23 22 21 19 18 17 16 15 14 14 14 16 15 10 10
28 26 28 29 29 28 28 27 27 27 27 28 24 27 24 27 28 29 29 30 29 26 25 21 22 20 19 19 19 17 16 14 14 12 14 14 13 13 13 12 12 13 12
24 25 24 27 27 27 26 25 26 26 26 27 26 25 25 24 26 28 29 28 23 23 22 20 19 17 15 15 15 14 13 15 13 12 13 12 11 10 11 12 12 9 10
21 22 22 22 23 22 23 24 24 23 23 23 24 22 25 24 23 25 26 24 22 21 21 19 16 15 13 12 12 12 11 11 12 10 11 9 9 9 9 9 9 9 8
17 18 19 19 19 18 19 20 20 21 22 22 22 21 19 22 23 21 21 20 19 18 17 15 14 13 12 10 12 12 11 11 11 11 9 8 7 9 7 8 7 6 6
14 14 14 15 15 16 16 17 17 16 17 19 19 19 19 19 20 21 20 19 17 16 15 12 11 12 11 9 9 9 10 12 10 9 9 9 7 7 7 6 6 5 6
10 11 11 12 12 13 14 14 15 16 16 16 17 17 18 18 18 18 18 17 16 15 13 11 11 10 10 9 9 8 8 9 7 7 6 7 7 7 5 4 5 5 4
7 8 8 9 9 10 10 11 12 13 13 14 15 15 16 15 16 16 16 15 13 12 12 11 10 9 9 9 9 9 7 7 6 5 5 6 5 4 4 2 3 3 3

GFSGL_sfc_temp_111.txt.gz
Temp
67 68 67 65 65 65 62 60 60 55 52 50 50 51 50 51 50 48 46 45 44 43 43 42 42 43 42 42 42 42 41 41 38 41 42 43 42 41 42 42 41 40 40
65 65 64 61 56 58 55 53 51 50 50 49 49 48 49 48 47 46 44 44 43 41 42 41 41 43 42 42 41 41 40 40 38 34 38 39 39 40 39 38 39 41 39
61 61 62 58 52 52 50 49 47 46 46 47 45 47 46 47 45 45 44 43 42 42 41 41 41 40 38 39 40 39 39 40 36 34 34 39 38 37 35 36 35 35 40
57 57 56 55 54 53 51 47 45 47 44 44 45 45 43 45 44 44 43 41 41 41 41 41 41 39 38 38 38 37 37 35 34 34 34 35 34 35 33 31 31 34 33
54 53 54 52 52 50 47 44 43 44 44 44 43 42 43 42 43 42 41 40 39 38 38 39 39 38 38 39 38 36 36 34 34 33 33 34 33 32 30 31 29 31 32
52 51 52 47 43 41 39 38 39 38 39 37 39 38 39 42 41 41 40 39 38 37 35 36 37 33 36 37 37 38 39 36 33 32 33 32 32 31 31 30 30 27 25
46 43 41 41 39 39 38 37 36 37 36 37 36 37 37 38 40 40 39 38 37 36 35 34 34 34 34 35 37 37 37 38 38 35 32 32 31 31 31 29 30 28 27
42 40 38 38 37 35 35 35 35 35 36 35 35 37 37 36 39 39 37 36 36 35 35 35 34 33 34 34 34 33 34 34 34 35 34 33 32 31 32 31 30 28 28
40 39 38 38 36 35 34 33 34 34 34 35 35 35 35 34 39 38 36 34 34 34 34 35 35 34 35 36 33 32 32 33 36 36 34 35 36 36 35 28 24 27 24
40 39 38 37 35 34 35 34 35 34 34 33 33 34 34 34 38 38 36 34 32 32 33 33 32 34 36 36 33 32 30 32 31 30 31 31 32 30 33 27 25 24 25
38 37 35 35 34 35 35 34 34 33 32 32 32 32 32 33 35 38 37 33 33 32 31 31 32 35 35 36 37 33 33 33 33 30 30 29 29 29 30 29 26 24 22
35 34 34 34 34 34 34 33 33 32 31 31 30 30 30 30 34 38 38 36 36 32 31 32 32 34 35 36 36 37 37 35 31 30 28 28 29 29 31 31 24 24 25
33 32 33 33 33 33 33 32 31 32 32 30 30 29 28 29 31 36 38 38 36 32 33 33 34 34 35 36 36 37 34 31 30 28 27 28 30 30 23 22 22 21 20
32 32 32 32 32 32 33 33 33 32 32 32 30 30 30 28 29 31 33 35 35 34 33 33 33 33 34 33 31 34 32 30 29 27 27 28 27 22 21 23 20 21 18
32 31 32 32 32 31 32 32 32 33 34 32 32 32 30 28 29 31 31 32 33 34 32 31 30 29 29 29 30 30 29 27 24 24 24 24 22 22 20 21 19 17 15
31 31 32 32 31 31 31 31 35 36 36 37 37 35 33 35 35 33 33 34 35 35 31 29 28 28 28 28 28 28 27 25 24 24 24 22 22 21 20 19 18 15 14
31 30 31 29 30 30 30 30 28 31 34 35 36 36 34 32 33 33 33 34 34 34 30 28 28 28 27 27 28 28 27 26 24 23 22 21 20 19 15 15 16 15 13
28 28 30 30 30 30 30 29 30 29 26 27 33 33 33 33 33 34 35 34 30 31 29 28 28 28 28 28 28 27 28 25 22 20 20 20 18 16 13 12 13 10 10
28 30 30 30 30 29 29 29 29 29 29 29 29 30 31 33 33 33 34 30 29 29 29 28 29 30 30 28 27 26 25 24 20 18 18 17 16 13 10 11 12 9 7
27 24 24 28 29 29 28 27 27 27 28 28 28 28 29 29 29 30 30 30 29 30 30 29 28 26 25 24 23 23 22 21 19 18 17 16 15 14 12 9 8 7 4
24 25 18 26 27 27 27 27 27 27 27 27 28 28 30 28 29 29 29 29 29 29 29 27 24 23 22 21 20 20 19 18 17 15 15 15 13 11 12 13 8 4 3
20 21 22 21 22 22 23 23 23 24 24 24 25 25 29 26 25 26 28 29 30 28 27 25 23 22 20 18 17 17 16 16 16 15 14 13 12 11 11 10 10 9 4
17 18 19 19 19 16 19 20 20 20 21 21 21 21 19 21 23 25 24 26 25 22 22 21 20 19 18 16 17 17 15 15 16 15 13 11 10 9 9 9 8 7 7
14 14 14 15 16 14 15 16 17 14 15 16 18 19 19 19 19 20 22 22 22 21 20 18 17 17 16 14 13 14 15 16 15 14 13 11 9 9 8 8 8 6 6
11 11 11 11 11 11 12 13 14 14 15 15 15 16 16 16 16 16 16 18 15 16 17 16 14 14 14 13 12 11 11 14 12 11 10 10 9 8 7 7 6 5 5
8 8 8 9 9 9 9 9 10 11 11 12 13 14 14 14 14 14 14 15 14 13 14 12 12 11 11 12 11 11 10 11 10 8 8 7 7 7 6 5 4 4 4

GFSGL_sfc_temp_114.txt.gz
Temp
59 62 61 62 62 61 64 62 61 54 52 49 49 49 49 48 48 45 42 42 40 39 38 38 37 38 36 37 37 38 37 36 34 36 38 37 36 35 36 36 36 35 34
56 57 57 58 57 58 59 56 53 51 50 49 48 49 49 47 46 44 43 42 40 38 38 38 37 40 37 37 37 36 36 37 35 33 34 33 33 34 34 32 36 38 33
53 53 54 54 55 55 53 50 49 48 48 47 48 48 47 45 45 45 44 41 39 39 38 37 37 37 35 35 35 35 36 38 34 31 30 33 32 31 30 31 31 30 35
50 50 50 49 50 50 49 47 46 45 45 45 45 46 45 44 44 43 41 40 38 38 38 38 37 36 35 35 35 34 35 32 32 30 28 27 27 30 28 26 26 26 27
48 47 47 47 47 46 44 44 42 42 43 43 42 42 42 42 43 41 41 38 38 36 36 37 37 36 37 37 36 34 33 32 31 30 29 27 28 28 28 27 25 24 24
46 45 46 44 41 38 37 37 38 37 39 38 38 39 39 42 42 41 39 38 37 35 34 34 35 34 37 39 40 39 37 33 32 29 28 29 31 29 27 25 28 24 18
41 40 39 37 37 36 35 36 35 35 36 36 36 37 36 37 41 41 39 37 36 35 34 33 33 33 33 34 38 38 38 39 38 33 29 30 29 30 28 26 28 28 27
38 37 36 35 34 33 33 33 34 34 35 36 35 36 36 36 40 40 38 35 34 32 33 33 33 32 33 33 33 33 33 33 34 34 32 32 31 30 29 30 29 28 24
36 36 35 35 32 32 33 33 33 33 33 34 35 34 35 34 40 39 37 33 33 32 33 33 33 32 35 37 32 31 31 32 36 38 37 36 36 37 34 29 18 15 12
36 36 35 34 32 31 31 33 32 33 33 32 32 33 33 33 38 39 36 32 31 31 31 32 33 34 36 37 32 31 30 30 30 28 28 31 32 31 35 28 22 13 11
35 33 31 30 29 30 29 29 30 32 31 32 32 32 33 34 35 38 38 33 32 31 31 31 32 36 36 37 36 32 31 32 32 30 29 27 28 28 28 26 25 21 13
30 29 28 26 29 29 29 27 31 32 32 31 31 30 31 33 35 38 38 36 36 31 31 31 31 35 36 37 35 35 35 34 30 28 26 26 27 27 28 29 28 24 21
27 25 25 26 28 28 28 25 29 32 31 30 30 30 29 29 31 37 38 37 36 32 32 33 34 35 36 36 36 35 33 33 30 28 27 27 28 29 27 25 24 16 16
24 24 25 24 25 25 27 27 26 26 27 29 30 30 29 28 29 32 34 35 34 34 33 33 34 34 35 34 31 34 33 33 30 29 28 27 26 24 23 23 18 17 11
25 23 24 24 23 23 24 24 25 25 27 24 26 29 29 27 29 32 33 32 33 33 31 30 30 29 29 29 29 30 30 29 28 29 27 26 25 23 20 18 16 12 10
25 24 23 23 22 22 22 22 33 35 36 37 38 31 27 34 35 34 34 35 36 36 31 29 28 28 28 28 27 28 29 28 27 25 24 24 23 22 20 17 15 15 13
21 22 21 22 21 21 20 20 19 25 35 35 35 37 37 34 35 34 34 34 35 35 31 30 29 29 28 28 27 27 27 28 27 24 24 24 22 20 19 18 17 14 12
18 20 18 18 18 18 18 18 18 18 17 18 29 33 35 36 35 35 35 34 30 32 31 30 29 29 28 28 27 27 28 27 25 24 23 22 21 20 17 17 16 11 11
16 16 15 16 16 17 16 16 15 15 15 15 19 26 27 34 35 35 35 31 29 30 30 30 30 29 29 28 28 28 27 27 24 23 21 21 20 18 17 16 16 15 11
13 17 15 12 13 14 14 19 22 17 19 17 19 17 17 23 27 28 29 30 30 30 29 29 30 30 29 29 28 27 26 24 22 20 20 20 19 18 17 16 15 13 11
9 11 13 11 12 9 9 10 15 21 23 24 25 25 31 25 25 26 28 29 29 29 30 30 30 28 27 26 25 23 23 23 23 21 19 19 17 15 15 15 15 14 12
5 5 5 5 5 7 5 6 7 7 7 8 12 11 27 23 19 23 26 27 28 29 30 30 30 27 26 24 22 22 21 20 19 19 17 17 15 15 13 13 12 12 11
2 2 2 4 2 5 4 3 3 3 4 4 7 10 9 6 8 10 13 20 19 18 20 21 22 21 20 20 20 20 19 18 19 19 17 15 14 13 12 11 11 10 9
-1 -1 -0 -1 -0 -1 -1 -0 0 2 2 1 2 4 6 7 8 9 9 9 12 14 13 12 15 18 19 16 15 17 17 18 18 18 17 15 13 12 11 10 9 9 9
-3 -4 -5 -3 -5 -4 -3 -4 -2 -3 -2 -0 0 1 1 3 5 5 6 6 8 9 6 7 6 5 8 12 10 10 13 16 15 14 14 13 11 10 10 9 9 8 8
-5 -5 -4 -5 -6 -6 -6 -5 -4 -3 -2 -0 1 2 3 4 5 5 6 6 6 6 6 5 6 8 9 9 10 10 11 13 13 11 11 11 9 9 9 8 7 7 6